Temp
62 62 62 62 62 61 59 58 57 57 57 56 56 55 55 55 54 54 54 53 53 52 52 51 51 51 51 51 51 51 51 51 51 51 52 52 52 52 53 54 55 55 56 57 58 59 59 59 59 60 60 59 59 59 59 59 59 59 59 58 58 58 58 58 58 58 58 58 58
62 61 61 60 60 59 58 56 56 56 56 55 55 54 54 53 53 52 52 51 51 51 51 51 51 50 50 50 50 50 50 50 50 50 50 50 50 51 52 52 53 53 54 55 55 56 56 56 56 56 56 56 57 57 57 57 57 57 56 56 56 56 56 56 56 56 56 56 56
60 60 59 59 58 57 56 55 54 54 53 53 53 53 53 52 52 51 51 50 51 51 51 50 50 50 49 49 49 49 49 49 49 49 49 49 49 49 50 51 51 52 52 53 53 53 53 54 54 54 54 54 54 55 55 55 56 55 55 55 55 55 55 55 55 55 56 56 56
56 56 56 56 55 55 54 53 53 52 52 52 52 52 52 51 51 50 50 50 50 50 50 49 49 49 49 48 48 48 48 49 48 48 48 48 48 49 49 50 50 50 51 51 51 52 52 52 52 52 51 51 52 52 53 53 54 54 54 54 54 54 54 54 55 55 55 55 55
53 53 53 53 53 53 53 52 52 52 52 52 51 51 50 50 50 50 49 49 49 49 49 49 48 48 48 48 48 47 47 48 48 48 47 47 48 48 48 49 49 49 49 50 50 50 50 51 50 50 50 50 50 50 51 51 51 51 51 51 52 52 52 52 53 53 54 54 54
51 51 52 52 52 51 51 51 51 51 51 50 50 49 49 49 49 48 48 48 48 48 48 48 48 48 48 47 47 47 47 47 47 47 47 47 47 48 48 48 48 48 48 49 49 49 49 49 49 49 49 49 49 49 49 50 50 49 49 49 49 49 49 49 50 50 51 51 51
50 50 50 50 50 50 50 50 50 50 49 49 48 48 47 47 47 47 47 47 47 47 47 47 47 47 47 47 46 46 46 46 46 47 47 47 47 47 47 47 48 48 48 48 48 48 48 48 48 48 48 48 48 48 48 49 49 48 48 48 48 48 48 48 48 49 49 49 49
49 49 49 49 49 49 49 48 48 48 48 48 47 47 47 47 46 46 46 46 46 46 46 46 46 46 46 46 46 45 46 46 46 46 46 46 46 46 47 47 47 47 47 48 48 48 48 48 47 47 47 47 47 47 48 48 48 48 47 47 47 48 48 48 48 48 48 48 48
48 48 48 48 47 47 47 47 47 47 46 46 46 46 46 46 46 45 45 45 45 45 46 45 46 45 45 45 45 45 45 45 45 45 45 45 45 46 46 46 46 46 47 47 47 47 47 47 47 47 46 46 46 47 47 48 47 47 47 47 47 47 48 48 48 48 48 48 48
46 46 46 46 46 46 46 46 46 45 45 44 44 45 45 45 45 44 44 44 45 45 44 45 45 45 45 45 44 44 44 44 44 44 44 44 45 45 45 45 45 45 46 46 46 46 46 46 46 46 46 46 46 46 47 47 47 47 47 47 47 47 48 48 48 48 48 48 48
46 46 46 46 46 46 46 45 45 45 44 44 44 44 44 44 44 44 44 45 44 44 44 45 45 45 45 45 45 45 45 45 44 44 44 44 44 44 44 44 45 45 45 46 46 46 46 46 45 46 46 45 46 46 46 46 46 46 46 47 47 47 47 48 48 48 49 49 49
45 45 45 45 46 46 45 45 44 44 44 44 44 44 44 44 44 45 45 45 44 44 44 45 45 45 45 45 45 45 45 46 45 45 44 44 44 45 45 45 45 45 45 46 46 46 45 45 45 45 45 45 45 45 46 46 46 46 46 46 47 47 47 47 47 48 48 48 48
45 45 45 45 45 45 44 44 44 43 43 43 44 44 44 44 45 45 45 44 44 44 45 46 46 46 46 46 46 46 46 47 47 46 46 46 46 46 46 46 46 46 46 46 46 46 46 46 46 46 45 45 45 45 46 46 46 46 46 46 46 46 46 46 46 46 46 47 46
44 45 45 45 45 44 44 43 43 43 43 43 43 44 44 44 45 45 45 44 45 45 45 46 46 46 46 46 46 46 47 47 47 47 47 46 46 46 47 47 47 47 47 46 46 46 46 46 46 46 46 46 46 46 46 46 46 46 46 46 46 46 46 46 46 46 46 46 45
44 44 44 44 44 44 43 43 43 43 43 43 43 44 44 44 45 46 45 45 45 45 46 45 46 46 46 46 46 46 46 46 46 46 46 45 45 46 46 46 46 46 46 46 46 46 46 46 46 46 46 46 46 46 46 46 46 46 46 45 46 45 45 45 46 45 45 45 45
43 43 44 44 43 43 43 43 43 43 43 43 44 44 44 44 45 45 45 45 45 45 45 45 45 45 45 46 46 46 46 46 45 45 45 44 44 44 44 45 45 45 45 46 45 45 45 45 45 45 45 45 45 45 45 45 45 45 45 45 45 45 45 45 45 44 44 44 44
43 43 43 43 43 43 43 43 43 43 43 43 43 44 44 44 44 45 45 45 45 44 44 44 45 45 45 45 45 45 45 45 44 44 44 44 44 44 44 44 44 44 44 44 44 44 44 44 44 44 44 44 44 44 44 44 44 44 44 44 44 44 44 44 44 44 43 44 43
42 42 42 42 42 42 42 42 43 43 43 43 43 43 43 43 43 43 44 44 44 44 44 44 44 44 44 44 44 44 44 43 43 43 43 43 43 43 43 43 43 43 43 43 43 43 43 43 43 44 43 43 43 43 44 44 44 44 44 44 44 44 44 44 43 43 43 43 43
42 42 42 42 42 42 42 42 42 42 42 42 42 42 42 42 42 42 42 43 43 43 43 43 43 43 43 43 43 43 43 43 42 42 42 42 42 43 43 43 43 43 43 43 43 43 42 43 43 43 43 43 43 43 43 43 43 43 43 44 43 43 43 43 43 43 43 43 43
42 42 41 41 41 41 41 41 41 41 41 40 41 41 41 41 41 42 42 42 43 43 42 42 42 42 42 42 42 42 42 42 42 42 42 41 42 42 42 42 43 43 43 43 43 42 42 42 42 42 42 43 42 42 42 42 42 42 43 43 43 43 43 43 43 43 43 43 43
41 41 41 41 41 41 40 40 39 40 40 40 40 40 40 41 41 41 42 42 42 42 42 41 41 41 41 41 41 41 41 42 41 41 41 41 41 41 41 42 42 42 42 43 42 42 42 42 43 43 42 43 42 42 42 42 42 42 42 42 42 42 42 43 43 43 43 43 43
40 41 41 41 41 41 40 40 40 40 40 40 40 40 40 41 41 41 41 42 42 41 41 41 41 41 41 40 41 41 41 41 41 41 41 40 40 41 41 42 41 41 41 41 41 42 42 43 43 43 43 43 42 42 42 42 42 42 42 42 42 42 42 42 42 42 42 42 42
40 40 40 41 41 41 41 40 40 40 40 40 40 40 41 41 41 41 41 41 41 40 40 39 39 40 40 40 40 40 40 41 41 41 41 40 40 40 41 41 40 40 40 40 41 41 41 42 42 43 43 43 42 42 42 43 43 42 42 42 42 42 42 42 41 41 41 41 41
40 40 40 40 40 40 40 39 39 40 40 40 41 41 41 41 40 40 40 39 39 39 39 38 39 39 39 40 40 40 40 40 40 40 40 40 40 40 40 40 40 40 40 40 41 42 42 42 42 42 42 42 42 42 43 43 42 42 42 41 41 41 41 40 40 40 40 40 41
40 40 40 40 39 39 39 39 39 40 40 40 40 40 40 40 40 40 40 39 39 38 38 38 39 39 40 40 40 40 40 40 39 39 39 40 40 40 40 40 40 40 41 41 43 44 45 44 43 42 41 41 41 42 42 42 42 42 41 41 41 40 40 40 39 40 40 40 40
40 39 39 40 40 40 40 40 40 40 40 39 39 39 39 39 40 39 39 38 38 38 39 39 39 40 41 40 40 40 40 39 39 39 39 39 40 40 40 40 40 40 41 42 44 45 45 45 45 44 42 40 40 40 40 40 41 41 41 40 40 39 39 38 38 38 39 39 38
40 40 40 40 40 40 40 40 40 39 39 39 38 39 39 39 39 38 38 38 38 38 39 39 39 41 41 40 40 39 39 39 39 39 39 39 39 39 39 39 39 39 40 43 44 44 45 45 45 44 43 39 38 38 38 38 39 39 39 39 39 38 38 37 37 37 37 37 37
40 40 40 40 40 40 40 40 40 39 39 39 39 39 39 38 38 38 38 38 38 39 39 39 40 40 40 39 39 39 38 39 38 38 38 38 38 37 37 37 37 38 41 44 44 44 44 44 44 44 43 41 38 37 37 36 37 37 37 37 37 37 36 36 36 36 36 35 35
40 40 40 40 40 40 40 40 39 39 39 39 39 39 38 38 38 38 38 38 38 38 38 39 39 39 38 38 37 37 37 37 37 37 36 36 36 36 36 36 36 38 42 45 45 44 44 44 44 44 44 43 39 36 35 35 35 35 35 36 35 34 34 34 34 34 34 34 33
40 40 40 40 40 40 39 39 39 39 39 39 39 38 38 38 38 38 38 38 38 38 38 38 38 37 37 36 36 36 36 36 36 35 35 35 35 35 35 36 36 38 41 45 45 44 44 44 44 44 43 43 40 36 34 33 33 33 33 33 33 32 33 33 33 33 33 33 33
40 40 40 40 40 39 39 39 39 39 39 39 39 39 38 38 38 38 38 37 38 39 39 38 37 36 36 36 35 35 35 35 35 35 34 34 35 35 35 34 34 37 40 45 45 45 44 44 44 43 43 43 40 36 33 32 32 32 32 31 32 32 32 32 33 33 33 33 32
40 40 40 39 39 39 39 39 39 39 39 39 38 38 38 38 38 37 37 37 37 37 37 36 36 35 35 35 35 35 35 34 34 34 34 33 33 33 33 33 33 36 40 44 44 44 44 44 44 43 43 43 41 36 33 32 32 32 32 32 32 33 33 35 34 33 33 33 33
39 39 38 38 38 38 39 39 39 39 38 38 37 37 37 37 37 36 36 36 36 36 35 35 35 34 34 34 34 34 34 34 33 34 34 33 32 32 32 32 32 36 41 44 44 44 44 44 43 43 43 43 40 35 32 31 32 32 32 32 33 33 33 33 33 33 33 33 33
37 37 37 37 37 37 37 37 37 37 37 36 36 36 36 36 35 35 35 35 35 35 34 34 34 33 33 33 33 32 33 33 32 31 31 31 31 31 31 31 31 36 42 43 43 43 43 43 43 43 43 43 38 34 31 31 32 32 32 32 32 32 32 33 33 33 33 33 33
36 36 36 36 36 36 36 36 36 35 35 35 35 35 35 34 34 34 34 35 35 34 32 32 32 32 32 32 32 32 32 32 31 30 30 30 30 30 31 30 31 36 41 42 42 43 43 43 43 43 42 41 35 32 30 30 30 30 31 31 31 32 32 33 33 33 33 33 33
35 34 34 34 34 34 34 34 34 33 33 33 33 33 33 33 32 32 33 35 33 32 30 30 30 30 30 30 30 31 32 30 30 30 30 30 30 30 29 30 30 35 39 41 42 42 42 42 42 42 41 37 32 30 29 29 30 30 30 30 31 31 32 33 33 33 33 33 33
33 33 32 32 32 32 32 32 32 32 31 31 31 31 31 31 31 31 32 33 31 29 29 29 29 29 29 29 29 29 30 30 30 30 30 31 30 29 29 29 29 32 37 41 41 42 42 42 42 42 40 34 31 29 29 30 30 30 30 30 31 31 32 33 33 33 33 32 33
31 31 31 30 30 30 30 30 30 30 30 30 30 30 30 30 29 30 31 33 30 29 28 28 28 28 28 28 28 29 29 29 30 30 30 29 29 29 28 28 28 30 34 40 41 42 42 42 42 41 39 34 31 30 30 30 30 30 30 30 31 31 32 33 33 32 32 33 36
30 30 29 29 29 29 29 29 29 29 29 29 29 29 29 29 29 30 31 32 29 28 28 28 28 28 28 30 29 29 28 28 29 30 30 28 29 31 31 29 28 30 34 39 41 42 42 42 42 41 40 36 33 31 31 31 30 30 30 30 30 31 31 32 32 32 33 34 39
29 29 29 29 29 29 28 28 28 28 28 28 29 29 29 29 30 31 32 31 29 28 28 28 28 28 29 31 30 28 28 28 28 28 29 29 31 34 35 31 29 30 33 38 41 41 42 42 41 41 40 38 35 34 34 33 32 31 30 30 30 30 31 32 33 34 36 35 38
29 29 29 29 29 29 29 28 29 29 29 29 29 29 30 31 31 31 30 29 29 29 28 28 28 28 29 31 30 28 27 27 28 28 29 31 31 34 34 31 29 29 31 35 39 41 41 41 41 41 40 39 37 36 35 34 33 32 31 31 32 32 33 33 35 36 37 37 37
MSLP
1008.01 1008.13 1008.13 1008.21 1008.37 1008.85 1009.37 1009.57 1009.53 1009.53 1009.65 1009.89 1010.13 1010.29 1010.45 1010.57 1010.77 1010.93 1011.05 1011.13 1011.29 1011.41 1011.57 1011.73 1011.85 1012.01 1012.13 1012.17 1012.25 1012.29 1012.29 1012.29 1012.29 1012.25 1012.17 1012.13 1012.13 1012.05 1011.97 1011.85 1011.77 1011.73 1011.57 1011.41 1011.29 1011.17 1011.05 1011.01 1010.97 1010.97 1011.01 1011.05 1011.01 1011.05 1011.05 1011.01 1010.85 1010.73 1010.73 1010.77 1010.85 1010.93 1010.97 1011.01 1011.09 1011.09 1011.01 1010.93 1010.81
1008.17 1008.29 1008.41 1008.57 1008.89 1009.37 1009.65 1009.65 1009.73 1009.85 1009.97 1010.09 1010.29 1010.49 1010.61 1010.77 1010.97 1011.09 1011.21 1011.33 1011.49 1011.61 1011.77 1011.97 1012.13 1012.29 1012.37 1012.45 1012.45 1012.45 1012.45 1012.49 1012.45 1012.41 1012.33 1012.33 1012.29 1012.25 1012.13 1012.05 1011.97 1011.89 1011.85 1011.73 1011.57 1011.49 1011.41 1011.33 1011.29 1011.29 1011.33 1011.33 1011.29 1011.29 1011.33 1011.29 1011.17 1011.09 1011.05 1011.05 1011.13 1011.13 1011.21 1011.29 1011.37 1011.37 1011.33 1011.29 1011.21
1008.45 1008.69 1008.89 1009.13 1009.41 1009.65 1009.77 1009.85 1010.01 1010.09 1010.17 1010.37 1010.57 1010.73 1010.85 1011.01 1011.13 1011.25 1011.41 1011.57 1011.73 1011.85 1012.05 1012.25 1012.45 1012.57 1012.57 1012.57 1012.61 1012.61 1012.61 1012.65 1012.61 1012.57 1012.57 1012.53 1012.49 1012.41 1012.33 1012.29 1012.21 1012.13 1012.05 1012.01 1011.93 1011.89 1011.85 1011.73 1011.61 1011.61 1011.65 1011.65 1011.65 1011.57 1011.57 1011.57 1011.49 1011.41 1011.37 1011.37 1011.41 1011.41 1011.49 1011.57 1011.57 1011.61 1011.57 1011.49 1011.45
1008.97 1009.13 1009.37 1009.57 1009.73 1009.81 1009.89 1010.01 1010.13 1010.29 1010.41 1010.61 1010.81 1010.93 1011.05 1011.17 1011.33 1011.45 1011.65 1011.81 1012.01 1012.21 1012.45 1012.57 1012.69 1012.73 1012.73 1012.73 1012.77 1012.81 1012.81 1012.81 1012.81 1012.77 1012.73 1012.73 1012.69 1012.65 1012.57 1012.53 1012.45 1012.37 1012.29 1012.29 1012.25 1012.21 1012.13 1012.01 1012.01 1012.01 1012.01 1012.01 1011.93 1011.85 1011.85 1011.89 1011.81 1011.73 1011.69 1011.69 1011.73 1011.73 1011.73 1011.77 1011.85 1011.81 1011.77 1011.73 1011.69
1009.33 1009.45 1009.61 1009.81 1009.97 1010.01 1010.09 1010.17 1010.29 1010.41 1010.57 1010.77 1010.97 1011.13 1011.29 1011.37 1011.57 1011.73 1011.85 1012.09 1012.37 1012.57 1012.73 1012.81 1012.85 1012.85 1012.85 1012.89 1012.97 1013.01 1013.01 1012.97 1012.97 1012.93 1012.97 1012.97 1012.97 1012.93 1012.85 1012.73 1012.69 1012.65 1012.61 1012.57 1012.57 1012.49 1012.41 1012.29 1012.33 1012.37 1012.41 1012.33 1012.29 1012.29 1012.25 1012.21 1012.13 1012.09 1012.01 1012.01 1012.05 1012.05 1012.05 1012.05 1012.05 1012.05 1012.01 1012.01 1011.93
1009.61 1009.73 1009.85 1010.05 1010.17 1010.25 1010.29 1010.33 1010.41 1010.53 1010.73 1011.01 1011.17 1011.33 1011.45 1011.65 1011.85 1012.01 1012.21 1012.45 1012.69 1012.85 1012.89 1012.89 1012.89 1012.97 1013.05 1013.13 1013.21 1013.21 1013.17 1013.17 1013.17 1013.21 1013.25 1013.25 1013.25 1013.17 1013.09 1013.01 1012.89 1012.89 1012.85 1012.85 1012.77 1012.73 1012.69 1012.57 1012.57 1012.65 1012.73 1012.69 1012.61 1012.57 1012.49 1012.45 1012.37 1012.33 1012.33 1012.37 1012.41 1012.45 1012.45 1012.45 1012.41 1012.41 1012.41 1012.37 1012.29
1009.81 1009.93 1010.05 1010.17 1010.29 1010.33 1010.37 1010.45 1010.53 1010.73 1011.01 1011.21 1011.41 1011.61 1011.81 1012.01 1012.13 1012.33 1012.53 1012.73 1012.85 1012.97 1013.01 1013.05 1013.13 1013.25 1013.33 1013.41 1013.41 1013.41 1013.41 1013.41 1013.45 1013.49 1013.49 1013.49 1013.45 1013.41 1013.33 1013.29 1013.17 1013.13 1013.13 1013.05 1012.97 1012.89 1012.85 1012.73 1012.73 1012.81 1012.85 1012.85 1012.81 1012.73 1012.65 1012.57 1012.57 1012.53 1012.53 1012.57 1012.65 1012.69 1012.65 1012.65 1012.61 1012.61 1012.61 1012.65 1012.61
1009.97 1010.09 1010.21 1010.33 1010.41 1010.45 1010.49 1010.65 1010.81 1011.01 1011.25 1011.53 1011.73 1011.97 1012.13 1012.29 1012.45 1012.57 1012.73 1012.89 1013.05 1013.17 1013.29 1013.41 1013.49 1013.57 1013.57 1013.57 1013.57 1013.61 1013.61 1013.65 1013.73 1013.73 1013.73 1013.73 1013.73 1013.65 1013.57 1013.49 1013.41 1013.33 1013.29 1013.21 1013.13 1013.05 1012.97 1012.93 1012.89 1012.93 1012.97 1012.97 1012.93 1012.89 1012.85 1012.81 1012.73 1012.73 1012.73 1012.77 1012.85 1012.85 1012.85 1012.85 1012.81 1012.81 1012.81 1012.85 1012.85
1010.17 1010.29 1010.45 1010.57 1010.65 1010.73 1010.85 1011.01 1011.17 1011.37 1011.61 1011.89 1012.13 1012.33 1012.45 1012.57 1012.69 1012.81 1012.97 1013.13 1013.33 1013.45 1013.57 1013.69 1013.73 1013.77 1013.77 1013.73 1013.73 1013.77 1013.85 1013.97 1014.01 1014.01 1014.01 1013.93 1013.85 1013.81 1013.77 1013.65 1013.57 1013.53 1013.45 1013.41 1013.33 1013.25 1013.17 1013.09 1013.05 1013.09 1013.09 1013.09 1013.09 1013.09 1013.05 1013.01 1012.93 1012.89 1012.89 1012.93 1012.93 1012.93 1012.93 1012.93 1012.93 1012.93 1012.97 1013.01 1013.05
1010.41 1010.57 1010.73 1010.93 1011.09 1011.17 1011.29 1011.41 1011.57 1011.77 1012.01 1012.25 1012.49 1012.69 1012.77 1012.85 1012.93 1013.05 1013.29 1013.45 1013.57 1013.65 1013.73 1013.85 1013.93 1013.93 1013.89 1013.89 1013.93 1014.01 1014.13 1014.17 1014.21 1014.21 1014.17 1014.13 1014.05 1014.01 1013.97 1013.89 1013.85 1013.73 1013.69 1013.65 1013.57 1013.49 1013.41 1013.33 1013.29 1013.29 1013.33 1013.29 1013.29 1013.29 1013.25 1013.21 1013.13 1013.05 1013.01 1013.01 1013.01 1013.01 1013.01 1013.01 1013.01 1013.01 1013.01 1013.09 1013.13
1010.73 1010.89 1011.09 1011.29 1011.41 1011.53 1011.57 1011.73 1011.89 1012.09 1012.29 1012.53 1012.77 1012.93 1013.01 1013.13 1013.21 1013.37 1013.49 1013.57 1013.69 1013.81 1013.93 1014.05 1014.05 1014.01 1014.01 1014.09 1014.13 1014.25 1014.33 1014.41 1014.41 1014.37 1014.33 1014.29 1014.25 1014.17 1014.13 1014.13 1014.05 1014.01 1013.93 1013.85 1013.85 1013.77 1013.73 1013.65 1013.61 1013.57 1013.53 1013.49 1013.49 1013.45 1013.41 1013.41 1013.29 1013.25 1013.17 1013.13 1013.09 1013.05 1013.05 1013.05 1013.05 1013.05 1013.09 1013.13 1013.17
1011.13 1011.25 1011.41 1011.57 1011.69 1011.77 1011.85 1011.97 1012.13 1012.37 1012.57 1012.81 1013.01 1013.17 1013.29 1013.41 1013.49 1013.57 1013.61 1013.73 1013.85 1014.01 1014.13 1014.13 1014.09 1014.09 1014.13 1014.17 1014.29 1014.37 1014.45 1014.45 1014.45 1014.45 1014.41 1014.41 1014.37 1014.29 1014.29 1014.29 1014.21 1014.17 1014.13 1014.09 1014.05 1014.01 1013.93 1013.85 1013.85 1013.77 1013.73 1013.69 1013.65 1013.61 1013.57 1013.57 1013.49 1013.41 1013.33 1013.25 1013.17 1013.13 1013.13 1013.13 1013.13 1013.17 1013.21 1013.25 1013.29
1011.49 1011.57 1011.73 1011.85 1011.89 1011.97 1012.05 1012.21 1012.45 1012.65 1012.85 1013.09 1013.29 1013.45 1013.57 1013.69 1013.73 1013.73 1013.81 1013.85 1014.01 1014.13 1014.17 1014.13 1014.13 1014.13 1014.17 1014.29 1014.41 1014.45 1014.45 1014.45 1014.45 1014.45 1014.45 1014.45 1014.45 1014.41 1014.37 1014.33 1014.29 1014.25 1014.21 1014.21 1014.17 1014.13 1014.09 1014.01 1013.97 1013.89 1013.85 1013.81 1013.73 1013.69 1013.65 1013.65 1013.61 1013.57 1013.53 1013.41 1013.33 1013.29 1013.25 1013.17 1013.21 1013.21 1013.21 1013.29 1013.33
1011.81 1011.89 1012.01 1012.05 1012.09 1012.13 1012.29 1012.49 1012.73 1013.01 1013.21 1013.41 1013.57 1013.69 1013.81 1013.85 1013.93 1013.97 1014.01 1014.09 1014.13 1014.21 1014.21 1014.21 1014.17 1014.25 1014.33 1014.45 1014.57 1014.57 1014.57 1014.57 1014.53 1014.57 1014.57 1014.57 1014.57 1014.53 1014.49 1014.45 1014.45 1014.41 1014.37 1014.33 1014.29 1014.21 1014.13 1014.05 1014.01 1013.97 1013.93 1013.89 1013.81 1013.73 1013.73 1013.69 1013.69 1013.73 1013.69 1013.65 1013.57 1013.53 1013.45 1013.37 1013.33 1013.29 1013.25 1013.21 1013.21
1012.13 1012.21 1012.29 1012.29 1012.33 1012.45 1012.61 1012.85 1013.13 1013.33 1013.49 1013.61 1013.77 1013.89 1013.97 1014.05 1014.09 1014.13 1014.21 1014.21 1014.25 1014.29 1014.29 1014.37 1014.41 1014.45 1014.53 1014.61 1014.73 1014.73 1014.73 1014.73 1014.73 1014.73 1014.77 1014.73 1014.73 1014.73 1014.73 1014.69 1014.65 1014.57 1014.57 1014.45 1014.41 1014.33 1014.29 1014.17 1014.13 1014.05 1014.01 1014.01 1013.93 1013.85 1013.85 1013.77 1013.77 1013.77 1013.81 1013.77 1013.77 1013.73 1013.73 1013.73 1013.61 1013.49 1013.33 1013.17 1013.09
1012.41 1012.49 1012.57 1012.61 1012.73 1012.85 1013.01 1013.17 1013.41 1013.57 1013.73 1013.85 1014.01 1014.09 1014.13 1014.25 1014.29 1014.29 1014.29 1014.29 1014.37 1014.45 1014.53 1014.57 1014.65 1014.69 1014.73 1014.85 1014.89 1014.93 1014.93 1014.89 1014.89 1014.93 1014.97 1014.97 1015.01 1015.01 1014.97 1014.89 1014.85 1014.77 1014.65 1014.57 1014.53 1014.45 1014.41 1014.33 1014.29 1014.21 1014.13 1014.13 1014.09 1014.01 1014.01 1013.97 1013.89 1013.89 1013.89 1013.85 1013.85 1013.89 1013.89 1013.89 1013.85 1013.73 1013.57 1013.41 1013.21
1012.65 1012.77 1012.89 1013.01 1013.09 1013.17 1013.29 1013.49 1013.65 1013.85 1013.97 1014.09 1014.21 1014.33 1014.41 1014.45 1014.49 1014.49 1014.49 1014.53 1014.61 1014.73 1014.81 1014.89 1014.89 1014.93 1015.01 1015.05 1015.13 1015.13 1015.13 1015.13 1015.13 1015.17 1015.17 1015.21 1015.21 1015.17 1015.13 1015.09 1015.01 1014.89 1014.81 1014.73 1014.69 1014.57 1014.53 1014.45 1014.45 1014.37 1014.29 1014.29 1014.25 1014.21 1014.17 1014.13 1014.13 1014.09 1014.05 1014.01 1014.01 1013.97 1013.97 1013.93 1013.93 1013.89 1013.85 1013.73 1013.57
1012.97 1013.13 1013.29 1013.37 1013.41 1013.53 1013.65 1013.81 1013.97 1014.13 1014.29 1014.41 1014.57 1014.65 1014.69 1014.73 1014.73 1014.73 1014.77 1014.85 1014.89 1015.01 1015.05 1015.09 1015.13 1015.13 1015.17 1015.29 1015.29 1015.33 1015.37 1015.41 1015.41 1015.41 1015.41 1015.41 1015.37 1015.33 1015.29 1015.21 1015.13 1015.05 1014.97 1014.89 1014.85 1014.77 1014.73 1014.61 1014.57 1014.53 1014.45 1014.45 1014.37 1014.33 1014.33 1014.29 1014.29 1014.25 1014.21 1014.17 1014.13 1014.05 1014.01 1013.97 1013.93 1013.93 1013.93 1013.89 1013.81
1013.37 1013.57 1013.65 1013.73 1013.77 1013.85 1013.97 1014.13 1014.29 1014.45 1014.61 1014.73 1014.85 1014.93 1014.97 1015.01 1015.01 1015.01 1015.05 1015.13 1015.13 1015.21 1015.25 1015.29 1015.29 1015.37 1015.41 1015.45 1015.53 1015.57 1015.61 1015.65 1015.65 1015.65 1015.61 1015.57 1015.57 1015.49 1015.41 1015.37 1015.29 1015.21 1015.13 1015.05 1015.01 1014.89 1014.85 1014.73 1014.73 1014.65 1014.57 1014.57 1014.53 1014.45 1014.45 1014.41 1014.37 1014.33 1014.29 1014.25 1014.21 1014.13 1014.09 1014.01 1014.01 1013.97 1013.97 1013.93 1013.93
1013.69 1013.85 1013.97 1014.05 1014.13 1014.21 1014.33 1014.49 1014.65 1014.81 1014.93 1015.05 1015.13 1015.17 1015.21 1015.25 1015.25 1015.25 1015.29 1015.37 1015.41 1015.41 1015.41 1015.49 1015.53 1015.57 1015.61 1015.69 1015.73 1015.81 1015.85 1015.85 1015.85 1015.81 1015.77 1015.73 1015.73 1015.65 1015.57 1015.49 1015.41 1015.33 1015.25 1015.13 1015.09 1015.01 1014.89 1014.85 1014.77 1014.73 1014.65 1014.61 1014.57 1014.57 1014.49 1014.45 1014.45 1014.37 1014.33 1014.29 1014.25 1014.17 1014.13 1014.05 1014.05 1014.01 1014.01 1013.97 1013.93
1014.01 1014.13 1014.29 1014.33 1014.45 1014.57 1014.73 1014.85 1015.01 1015.13 1015.21 1015.29 1015.33 1015.37 1015.41 1015.41 1015.45 1015.49 1015.53 1015.57 1015.57 1015.57 1015.65 1015.69 1015.73 1015.81 1015.85 1015.93 1015.97 1016.01 1016.01 1016.01 1016.01 1015.97 1015.89 1015.85 1015.81 1015.73 1015.69 1015.61 1015.57 1015.45 1015.41 1015.29 1015.21 1015.13 1015.05 1014.93 1014.85 1014.81 1014.73 1014.69 1014.61 1014.57 1014.57 1014.49 1014.45 1014.41 1014.37 1014.29 1014.25 1014.17 1014.13 1014.09 1014.01 1014.01 1014.01 1013.93 1013.85
1014.41 1014.53 1014.61 1014.69 1014.77 1014.89 1015.01 1015.13 1015.29 1015.33 1015.41 1015.49 1015.53 1015.57 1015.57 1015.61 1015.69 1015.69 1015.73 1015.73 1015.73 1015.77 1015.85 1015.89 1016.01 1016.05 1016.13 1016.13 1016.13 1016.17 1016.17 1016.13 1016.13 1016.05 1016.01 1015.93 1015.85 1015.81 1015.73 1015.73 1015.65 1015.57 1015.53 1015.41 1015.33 1015.29 1015.17 1015.05 1014.97 1014.85 1014.81 1014.73 1014.73 1014.61 1014.57 1014.49 1014.45 1014.45 1014.37 1014.29 1014.21 1014.17 1014.13 1014.05 1014.01 1013.97 1013.97 1013.89 1013.85
1014.77 1014.85 1014.97 1015.05 1015.13 1015.21 1015.29 1015.41 1015.53 1015.57 1015.61 1015.65 1015.73 1015.73 1015.77 1015.81 1015.85 1015.85 1015.85 1015.89 1015.93 1016.01 1016.09 1016.13 1016.21 1016.29 1016.29 1016.29 1016.33 1016.29 1016.29 1016.21 1016.13 1016.09 1016.01 1015.97 1015.93 1015.85 1015.85 1015.77 1015.73 1015.69 1015.61 1015.57 1015.45 1015.37 1015.25 1015.13 1015.05 1014.97 1014.89 1014.85 1014.77 1014.69 1014.57 1014.49 1014.45 1014.41 1014.33 1014.29 1014.25 1014.17 1014.13 1014.05 1014.01 1013.97 1013.89 1013.81 1013.77
1015.13 1015.21 1015.29 1015.37 1015.45 1015.57 1015.61 1015.69 1015.73 1015.77 1015.85 1015.85 1015.85 1015.89 1015.93 1015.97 1016.01 1016.05 1016.05 1016.09 1016.13 1016.25 1016.33 1016.41 1016.45 1016.45 1016.45 1016.45 1016.41 1016.33 1016.29 1016.29 1016.17 1016.13 1016.05 1016.01 1015.97 1015.89 1015.85 1015.81 1015.77 1015.73 1015.73 1015.61 1015.49 1015.37 1015.29 1015.17 1015.13 1015.05 1015.01 1014.93 1014.85 1014.77 1014.69 1014.57 1014.53 1014.45 1014.37 1014.29 1014.25 1014.17 1014.13 1014.05 1014.01 1013.93 1013.85 1013.77 1013.73
1015.45 1015.53 1015.57 1015.69 1015.77 1015.85 1015.85 1015.89 1015.93 1015.97 1016.01 1016.01 1016.01 1016.05 1016.13 1016.13 1016.17 1016.25 1016.29 1016.29 1016.45 1016.53 1016.57 1016.57 1016.57 1016.57 1016.49 1016.45 1016.41 1016.33 1016.29 1016.25 1016.17 1016.13 1016.09 1016.01 1015.97 1015.93 1015.85 1015.85 1015.77 1015.73 1015.73 1015.61 1015.45 1015.33 1015.25 1015.13 1015.09 1015.05 1015.01 1015.01 1014.93 1014.85 1014.73 1014.69 1014.57 1014.53 1014.45 1014.37 1014.29 1014.25 1014.17 1014.09 1014.01 1013.93 1013.85 1013.77 1013.69
1015.81 1015.85 1015.89 1015.97 1016.01 1016.01 1016.01 1016.05 1016.13 1016.13 1016.13 1016.21 1016.25 1016.29 1016.29 1016.37 1016.37 1016.41 1016.49 1016.57 1016.69 1016.73 1016.73 1016.69 1016.61 1016.57 1016.49 1016.45 1016.37 1016.33 1016.29 1016.25 1016.21 1016.17 1016.13 1016.05 1016.01 1015.97 1015.89 1015.85 1015.77 1015.73 1015.73 1015.57 1015.45 1015.33 1015.25 1015.13 1015.05 1015.01 1015.05 1015.01 1015.01 1014.93 1014.85 1014.77 1014.65 1014.57 1014.53 1014.45 1014.33 1014.29 1014.21 1014.13 1014.01 1013.93 1013.85 1013.73 1013.65
1016.05 1016.09 1016.13 1016.13 1016.13 1016.13 1016.13 1016.21 1016.29 1016.29 1016.33 1016.41 1016.45 1016.49 1016.53 1016.53 1016.57 1016.69 1016.81 1016.89 1016.89 1016.85 1016.85 1016.73 1016.69 1016.57 1016.49 1016.45 1016.37 1016.33 1016.29 1016.25 1016.25 1016.21 1016.17 1016.13 1016.09 1016.01 1015.93 1015.85 1015.77 1015.73 1015.69 1015.57 1015.49 1015.37 1015.29 1015.17 1015.13 1015.09 1015.05 1015.09 1015.05 1015.01 1014.93 1014.85 1014.73 1014.65 1014.57 1014.49 1014.41 1014.29 1014.21 1014.13 1014.05 1013.93 1013.85 1013.73 1013.73
1016.25 1016.29 1016.29 1016.29 1016.33 1016.37 1016.41 1016.45 1016.49 1016.53 1016.57 1016.61 1016.65 1016.69 1016.73 1016.85 1016.89 1017.01 1017.09 1017.09 1017.01 1016.97 1016.89 1016.81 1016.73 1016.61 1016.53 1016.45 1016.41 1016.37 1016.33 1016.29 1016.29 1016.29 1016.25 1016.21 1016.13 1016.09 1016.01 1015.89 1015.85 1015.73 1015.65 1015.57 1015.45 1015.41 1015.33 1015.29 1015.21 1015.13 1015.05 1015.05 1015.05 1015.05 1015.01 1014.93 1014.85 1014.73 1014.61 1014.53 1014.45 1014.29 1014.25 1014.17 1014.09 1014.01 1013.93 1013.85 1013.81
1016.45 1016.49 1016.49 1016.49 1016.57 1016.61 1016.65 1016.65 1016.73 1016.73 1016.81 1016.85 1016.89 1016.97 1017.05 1017.13 1017.25 1017.29 1017.29 1017.25 1017.13 1017.01 1016.93 1016.85 1016.69 1016.57 1016.53 1016.53 1016.45 1016.45 1016.41 1016.41 1016.37 1016.33 1016.29 1016.29 1016.21 1016.13 1016.09 1016.01 1015.89 1015.77 1015.65 1015.53 1015.41 1015.41 1015.37 1015.29 1015.21 1015.13 1015.09 1015.01 1015.05 1015.05 1015.01 1014.97 1014.85 1014.77 1014.65 1014.57 1014.45 1014.37 1014.29 1014.21 1014.09 1014.05 1014.01 1013.93 1013.85
1016.73 1016.73 1016.77 1016.81 1016.85 1016.85 1016.89 1016.97 1017.01 1017.01 1017.09 1017.13 1017.21 1017.29 1017.37 1017.41 1017.45 1017.41 1017.37 1017.29 1017.13 1017.01 1016.89 1016.81 1016.73 1016.69 1016.61 1016.61 1016.57 1016.57 1016.49 1016.49 1016.45 1016.41 1016.37 1016.37 1016.29 1016.25 1016.17 1016.09 1016.01 1015.85 1015.73 1015.53 1015.41 1015.37 1015.33 1015.29 1015.21 1015.13 1015.05 1015.01 1014.97 1015.01 1014.97 1014.93 1014.85 1014.81 1014.73 1014.61 1014.53 1014.45 1014.33 1014.25 1014.13 1014.09 1014.01 1013.97 1013.93
1017.01 1017.01 1017.05 1017.09 1017.13 1017.17 1017.17 1017.21 1017.29 1017.29 1017.37 1017.41 1017.45 1017.53 1017.57 1017.57 1017.53 1017.45 1017.37 1017.25 1017.13 1017.01 1016.85 1016.77 1016.77 1016.73 1016.73 1016.69 1016.65 1016.61 1016.61 1016.57 1016.53 1016.49 1016.49 1016.45 1016.41 1016.29 1016.21 1016.13 1016.01 1015.85 1015.73 1015.53 1015.37 1015.29 1015.29 1015.17 1015.13 1015.09 1015.01 1014.93 1014.93 1014.97 1014.93 1014.89 1014.85 1014.77 1014.73 1014.61 1014.53 1014.41 1014.29 1014.21 1014.13 1014.09 1014.01 1014.01 1013.97
1017.29 1017.29 1017.33 1017.41 1017.41 1017.45 1017.49 1017.53 1017.53 1017.57 1017.57 1017.61 1017.65 1017.65 1017.65 1017.57 1017.53 1017.41 1017.29 1017.17 1017.09 1017.01 1016.93 1016.89 1016.85 1016.85 1016.77 1016.73 1016.73 1016.69 1016.69 1016.65 1016.61 1016.57 1016.57 1016.53 1016.45 1016.33 1016.25 1016.13 1016.01 1015.85 1015.69 1015.45 1015.33 1015.25 1015.17 1015.13 1015.05 1015.01 1014.93 1014.85 1014.85 1014.89 1014.93 1014.89 1014.81 1014.73 1014.65 1014.57 1014.45 1014.33 1014.25 1014.17 1014.09 1014.01 1014.01 1013.97 1013.93
1017.57 1017.57 1017.61 1017.69 1017.73 1017.73 1017.73 1017.73 1017.73 1017.73 1017.73 1017.73 1017.73 1017.69 1017.61 1017.53 1017.41 1017.33 1017.29 1017.17 1017.13 1017.09 1017.05 1017.01 1016.97 1016.97 1016.93 1016.85 1016.85 1016.81 1016.77 1016.77 1016.73 1016.65 1016.57 1016.49 1016.41 1016.29 1016.21 1016.09 1016.01 1015.85 1015.65 1015.41 1015.29 1015.17 1015.13 1015.01 1015.01 1014.97 1014.85 1014.77 1014.85 1014.93 1014.97 1014.89 1014.81 1014.73 1014.65 1014.57 1014.45 1014.33 1014.25 1014.13 1014.09 1014.01 1013.97 1013.89 1013.85
1017.85 1017.85 1017.89 1017.89 1017.93 1017.93 1017.89 1017.85 1017.85 1017.85 1017.85 1017.77 1017.73 1017.69 1017.61 1017.57 1017.45 1017.41 1017.29 1017.25 1017.17 1017.17 1017.13 1017.13 1017.09 1017.05 1017.01 1017.01 1016.97 1016.89 1016.85 1016.77 1016.73 1016.65 1016.57 1016.49 1016.37 1016.29 1016.17 1016.09 1016.01 1015.81 1015.57 1015.41 1015.29 1015.21 1015.13 1015.05 1015.01 1014.93 1014.85 1014.81 1014.89 1014.97 1015.01 1014.93 1014.85 1014.73 1014.65 1014.57 1014.45 1014.33 1014.21 1014.13 1014.05 1014.01 1013.89 1013.85 1013.77
1018.17 1018.17 1018.13 1018.13 1018.13 1018.09 1018.01 1018.01 1017.97 1017.93 1017.89 1017.85 1017.85 1017.77 1017.73 1017.61 1017.57 1017.53 1017.41 1017.29 1017.25 1017.25 1017.25 1017.17 1017.13 1017.13 1017.09 1017.01 1017.01 1016.97 1016.93 1016.85 1016.77 1016.69 1016.57 1016.45 1016.33 1016.25 1016.17 1016.09 1015.97 1015.81 1015.61 1015.49 1015.37 1015.29 1015.17 1015.09 1015.01 1014.93 1014.85 1014.85 1015.01 1015.05 1015.05 1015.01 1014.89 1014.81 1014.69 1014.57 1014.45 1014.33 1014.21 1014.13 1014.01 1013.89 1013.85 1013.73 1013.73
1018.45 1018.45 1018.41 1018.37 1018.33 1018.29 1018.21 1018.13 1018.13 1018.13 1018.09 1018.01 1018.01 1017.89 1017.85 1017.77 1017.69 1017.57 1017.49 1017.37 1017.37 1017.37 1017.37 1017.33 1017.25 1017.21 1017.17 1017.13 1017.05 1017.01 1016.89 1016.85 1016.77 1016.69 1016.57 1016.45 1016.37 1016.29 1016.21 1016.13 1016.01 1015.85 1015.73 1015.57 1015.41 1015.29 1015.17 1015.09 1015.01 1014.93 1014.89 1014.97 1015.05 1015.09 1015.05 1015.01 1014.85 1014.81 1014.69 1014.57 1014.45 1014.33 1014.21 1014.13 1014.01 1013.93 1013.85 1013.77 1013.73
1018.65 1018.65 1018.61 1018.57 1018.49 1018.45 1018.41 1018.33 1018.29 1018.29 1018.25 1018.17 1018.13 1018.05 1017.97 1017.89 1017.81 1017.69 1017.57 1017.45 1017.49 1017.49 1017.45 1017.41 1017.33 1017.29 1017.29 1017.21 1017.13 1017.05 1016.97 1016.85 1016.77 1016.69 1016.57 1016.45 1016.37 1016.29 1016.21 1016.13 1016.01 1015.89 1015.73 1015.57 1015.41 1015.29 1015.13 1015.05 1015.01 1014.93 1014.93 1015.01 1015.05 1015.05 1015.01 1014.97 1014.85 1014.77 1014.69 1014.57 1014.45 1014.33 1014.21 1014.13 1014.01 1013.93 1013.85 1013.77 1013.69
1018.81 1018.77 1018.77 1018.73 1018.69 1018.61 1018.57 1018.49 1018.45 1018.45 1018.37 1018.33 1018.25 1018.13 1018.01 1017.97 1017.85 1017.77 1017.69 1017.57 1017.57 1017.61 1017.57 1017.49 1017.45 1017.41 1017.33 1017.29 1017.17 1017.09 1016.97 1016.85 1016.73 1016.65 1016.57 1016.45 1016.37 1016.29 1016.17 1016.09 1016.01 1015.89 1015.73 1015.57 1015.37 1015.25 1015.13 1015.05 1015.01 1014.93 1014.89 1014.97 1015.01 1015.01 1015.01 1014.97 1014.85 1014.81 1014.73 1014.61 1014.53 1014.41 1014.29 1014.17 1014.05 1013.97 1013.85 1013.77 1013.65
1018.93 1018.89 1018.85 1018.85 1018.77 1018.73 1018.69 1018.61 1018.57 1018.53 1018.45 1018.37 1018.29 1018.17 1018.09 1018.01 1017.93 1017.85 1017.77 1017.69 1017.73 1017.73 1017.69 1017.65 1017.57 1017.45 1017.33 1017.25 1017.17 1017.09 1016.97 1016.85 1016.73 1016.61 1016.53 1016.45 1016.33 1016.21 1016.13 1016.05 1015.97 1015.85 1015.73 1015.49 1015.33 1015.21 1015.13 1015.01 1015.01 1014.89 1014.89 1014.93 1015.01 1015.01 1015.01 1015.01 1014.93 1014.85 1014.81 1014.69 1014.61 1014.53 1014.41 1014.29 1014.13 1014.05 1013.97 1013.85 1013.69
1019.01 1018.93 1018.89 1018.85 1018.81 1018.73 1018.73 1018.69 1018.65 1018.57 1018.49 1018.45 1018.37 1018.29 1018.21 1018.13 1018.01 1017.89 1017.85 1017.81 1017.77 1017.77 1017.73 1017.65 1017.57 1017.45 1017.33 1017.17 1017.13 1017.05 1017.01 1016.85 1016.73 1016.61 1016.53 1016.45 1016.29 1016.13 1016.01 1016.01 1015.93 1015.85 1015.69 1015.49 1015.33 1015.25 1015.13 1015.09 1015.01 1014.93 1014.89 1014.97 1015.01 1015.01 1015.01 1015.01 1014.97 1014.89 1014.85 1014.73 1014.69 1014.57 1014.49 1014.33 1014.25 1014.13 1014.01 1013.89 1013.77
1019.05 1019.01 1018.93 1018.85 1018.85 1018.77 1018.73 1018.73 1018.69 1018.61 1018.57 1018.53 1018.45 1018.37 1018.29 1018.17 1018.13 1018.01 1017.93 1017.89 1017.85 1017.77 1017.69 1017.61 1017.57 1017.41 1017.29 1017.13 1017.09 1017.01 1016.97 1016.85 1016.77 1016.65 1016.57 1016.45 1016.33 1016.17 1016.05 1016.01 1015.93 1015.85 1015.73 1015.57 1015.41 1015.29 1015.17 1015.13 1015.01 1014.97 1014.93 1015.01 1015.01 1015.05 1015.05 1015.01 1014.97 1014.89 1014.81 1014.73 1014.65 1014.57 1014.45 1014.33 1014.21 1014.13 1014.01 1013.93 1013.85
Wind_Speed
6 6 4 4 3 1 1 3 4 5 5 5 5 5 5 6 5 5 5 5 5 5 5 5 5 5 6 7 7 7 7 7 8 8 8 9 8 8 8 7 7 7 8 7 6 5 5 6 5 4 3 3 4 4 5 5 5 5 6 6 5 6 7 7 6 6 6 5 4
8 8 7 5 3 2 2 4 5 5 5 6 6 6 6 5 5 6 6 6 6 5 5 5 5 6 6 7 7 7 7 7 8 8 8 8 8 8 8 7 8 8 8 8 8 6 5 6 6 5 4 4 5 5 6 6 6 7 9 9 7 7 7 7 7 7 7 7 6
3 4 5 5 2 2 4 4 5 6 7 6 6 6 6 6 6 6 6 6 6 6 6 5 5 6 7 7 7 7 7 7 7 7 7 7 8 8 8 8 8 9 9 8 8 7 6 6 6 5 5 5 5 5 5 6 6 7 8 8 6 5 5 5 5 5 5 5 5
7 6 6 5 6 6 6 5 6 7 8 7 7 7 6 6 6 6 7 7 7 7 6 5 5 5 6 7 8 8 7 8 8 8 8 8 8 9 9 8 9 9 9 9 9 8 7 7 6 6 6 6 6 6 6 6 7 7 6 6 6 6 5 5 5 4 4 4 4
9 8 8 8 8 8 7 7 8 8 8 7 6 6 6 6 6 7 7 7 7 6 6 6 5 6 7 8 8 8 8 9 9 8 8 8 8 8 8 9 9 9 8 8 8 8 8 7 6 5 5 6 6 6 6 6 7 7 6 6 6 6 6 6 5 5 5 5 5
9 9 9 8 9 8 8 8 9 9 8 8 8 8 7 7 7 7 7 7 7 7 7 8 8 7 8 8 8 8 8 8 8 8 7 7 7 7 8 8 8 7 7 7 7 7 7 6 5 5 4 4 5 6 6 7 6 6 6 6 6 6 6 6 6 6 7 8 9
10 10 10 10 10 10 9 10 10 10 10 9 11 11 10 9 9 9 9 8 7 7 7 8 8 8 7 7 7 8 8 8 8 8 7 7 7 7 7 7 7 7 6 6 6 6 6 5 5 4 4 4 4 5 6 6 6 6 6 6 5 5 5 5 5 5 7 9 10
11 12 11 11 11 12 12 12 11 11 10 10 11 12 12 11 11 10 9 8 8 7 7 7 7 7 7 7 7 8 8 8 8 8 7 7 7 7 7 7 7 7 7 6 6 6 5 5 4 4 4 4 4 5 6 7 7 7 6 6 4 4 4 4 4 4 5 7 8
11 12 12 12 12 13 13 14 13 12 12 12 12 12 11 11 11 10 9 8 8 7 7 6 7 7 8 8 8 8 8 7 7 7 7 7 8 8 7 7 8 8 7 7 7 7 6 5 4 4 4 4 4 4 5 6 6 6 6 5 4 3 3 3 3 4 4 4 5
12 12 12 12 12 13 14 14 14 14 14 13 12 12 11 11 10 10 8 7 7 7 7 6 6 7 8 8 8 7 7 6 6 6 7 7 7 8 8 7 8 8 7 7 7 7 6 5 4 4 4 4 4 4 4 5 5 5 4 3 3 3 3 3 3 3 3 3 3
13 12 12 11 12 12 13 13 13 13 13 12 12 11 11 10 10 9 8 7 7 7 7 6 6 7 7 7 7 6 6 5 5 5 5 6 7 7 7 7 7 7 7 7 6 5 5 4 4 4 4 4 4 4 4 4 4 4 3 2 2 3 3 3 3 3 3 3 3
12 12 12 12 12 12 12 12 12 11 12 12 12 11 10 9 9 8 8 8 7 7 6 6 6 7 7 6 6 5 4 4 4 5 5 5 6 6 6 6 6 6 6 6 5 4 4 3 3 3 4 3 3 2 2 3 2 2 2 2 2 3 3 3 3 3 2 3 3
12 12 12 12 12 12 13 12 11 11 11 11 11 10 8 8 8 8 8 7 7 6 5 6 7 7 7 6 5 5 4 5 5 5 5 5 5 5 5 5 5 5 5 4 4 3 3 2 2 2 2 2 1 1 1 1 1 1 0 0 1 2 3 3 3 3 3 3 2
12 12 12 12 12 12 12 12 11 10 10 10 10 9 8 7 7 7 7 6 6 6 6 6 7 7 7 7 6 6 6 6 6 6 6 6 6 6 6 5 5 4 4 3 4 3 3 3 2 2 2 2 2 2 2 2 1 1 1 1 1 1 2 2 3 3 3 4 4
13 13 12 12 12 12 11 11 10 9 9 9 8 8 7 6 7 7 7 7 7 7 7 7 7 7 8 8 7 7 7 7 7 7 7 7 7 7 6 6 5 5 4 4 4 5 5 5 4 4 4 4 4 4 4 4 3 3 3 3 2 2 2 1 1 1 2 3 4
13 13 13 13 12 12 11 10 9 8 9 8 8 7 7 6 6 7 8 8 7 7 7 8 7 7 7 8 7 7 7 7 7 7 6 6 6 6 5 5 5 5 4 4 4 5 5 5 5 5 5 5 5 5 5 5 4 4 4 3 3 3 3 2 2 2 1 1 2
14 14 13 13 13 13 12 10 9 9 9 9 8 8 7 6 6 7 8 8 7 7 8 8 7 7 7 7 7 7 6 6 6 6 6 5 5 5 5 5 4 4 4 4 4 4 4 4 4 4 4 4 4 4 4 4 4 4 3 3 3 2 2 2 2 3 3 2 2
15 14 13 13 13 13 13 12 11 10 10 9 9 8 7 7 7 7 8 8 7 8 8 8 7 7 7 7 6 6 6 6 5 5 5 5 4 4 4 4 4 4 4 4 3 3 3 3 3 3 3 3 3 3 3 3 3 3 2 2 2 2 2 2 2 2 2 2 2
14 14 13 13 13 13 13 12 12 11 10 9 8 8 8 7 7 7 7 8 8 8 7 7 7 7 6 6 6 5 5 5 5 5 4 4 4 4 4 4 4 4 3 3 3 3 3 2 2 2 2 2 2 2 2 2 2 2 2 2 2 1 1 1 1 1 1 1 2
14 13 13 13 13 12 12 11 10 9 9 7 7 8 8 7 7 7 7 7 7 7 7 7 6 6 6 5 5 4 4 3 4 4 4 4 4 4 4 4 4 4 4 4 4 4 3 3 2 2 1 1 1 1 1 2 2 2 2 2 2 2 2 2 2 2 2 2 2
13 13 12 12 12 11 10 9 9 8 8 7 7 7 7 7 7 7 7 7 6 6 6 6 6 5 5 4 4 3 3 2 2 3 3 3 3 3 3 3 4 4 4 4 5 5 5 4 4 3 3 2 2 2 2 2 2 2 2 2 2 2 3 3 2 2 2 2 2
12 12 11 11 11 10 9 8 8 7 7 7 7 7 7 6 7 6 6 6 5 5 5 5 5 4 3 3 2 2 1 1 2 2 2 2 2 3 3 2 3 3 3 4 4 4 5 5 5 5 4 4 3 3 3 3 3 3 3 3 3 3 3 3 3 3 3 3 3
11 10 10 10 10 10 9 8 7 7 7 7 6 6 6 6 6 6 5 5 5 5 4 3 3 2 2 1 1 1 1 1 1 2 2 2 2 2 2 2 1 2 2 3 3 3 3 4 4 4 4 5 5 5 5 4 3 3 3 3 3 3 3 2 2 3 3 3 3
10 9 9 8 9 9 8 7 7 7 7 7 6 6 6 6 5 5 5 5 4 4 3 2 1 1 1 1 1 1 1 1 1 2 2 2 2 2 2 1 0 1 1 2 3 3 3 3 3 3 4 4 4 5 5 5 5 4 3 3 3 3 3 2 2 3 3 3 3
9 9 9 8 8 7 7 7 7 7 7 6 6 6 5 5 5 4 4 4 3 2 2 1 1 1 1 1 1 1 1 1 1 2 2 3 3 2 2 1 0 0 1 2 4 5 6 5 4 3 3 3 4 4 5 5 5 5 5 5 4 4 3 3 3 3 3 3 3
9 8 8 8 7 7 8 7 7 7 6 5 5 5 5 4 4 4 4 3 2 1 1 1 1 1 1 1 1 1 1 1 1 2 2 3 3 3 2 1 0 0 1 3 5 6 7 7 6 5 4 2 3 4 4 4 5 5 5 6 5 5 4 4 4 4 3 3 3
8 8 8 7 8 8 8 7 6 6 5 5 5 5 5 4 4 3 3 2 2 2 2 1 1 1 1 1 1 1 1 1 1 2 2 3 3 3 3 2 1 0 1 3 5 6 6 7 8 7 6 3 3 3 3 4 5 5 5 5 5 5 5 4 4 4 3 3 2
8 8 7 8 8 8 7 7 6 6 6 5 5 5 4 4 3 3 2 2 2 2 1 1 1 1 1 1 1 2 2 2 2 2 2 3 3 3 3 3 2 2 2 4 5 6 6 7 7 8 7 5 3 2 3 4 4 5 5 5 5 5 5 4 4 3 3 3 2
8 7 7 8 8 7 7 7 7 6 6 5 4 4 3 3 2 2 2 2 2 2 1 1 2 2 2 2 2 2 2 2 2 2 2 3 3 3 3 3 3 4 5 7 6 6 6 7 8 8 8 8 4 3 3 3 4 4 4 4 5 5 5 5 5 4 4 3 3
7 7 7 8 7 7 7 6 6 5 4 4 3 3 2 1 1 1 2 2 2 2 2 1 2 2 2 2 2 2 2 2 2 2 2 3 3 3 3 3 3 4 6 8 7 7 7 8 8 9 9 9 6 4 2 3 3 4 4 4 5 5 6 6 6 5 5 4 3
8 8 8 8 7 7 7 6 5 4 3 3 2 2 2 1 1 1 2 2 2 2 2 2 2 3 2 2 2 2 2 2 2 2 3 3 3 3 3 3 4 5 7 9 9 9 9 9 9 10 10 11 7 4 3 3 3 4 4 5 6 6 6 6 6 6 5 5 4
9 8 8 8 8 7 6 6 5 4 4 3 3 2 2 2 1 1 2 2 3 3 3 3 3 3 3 3 3 3 3 3 3 3 3 3 3 3 3 4 4 5 7 11 11 10 10 10 11 11 11 12 8 5 4 4 4 5 5 6 6 7 7 6 6 6 6 5 4
9 9 8 8 8 7 6 6 5 5 4 4 4 3 3 3 2 2 3 3 3 3 4 4 4 4 4 3 3 3 3 4 4 4 4 4 4 4 4 4 4 6 9 12 12 12 12 12 12 12 12 13 8 6 4 4 4 5 5 6 6 7 7 7 6 6 6 5 5
9 9 8 8 7 7 6 6 5 5 5 5 5 5 5 4 4 4 3 3 3 3 3 3 3 3 3 3 3 3 4 4 4 4 5 5 5 5 4 4 4 7 11 13 13 13 13 13 12 13 13 12 8 5 4 5 5 5 6 6 7 7 7 7 7 7 6 6 5
8 8 7 7 6 6 6 6 6 6 6 6 6 6 5 5 4 4 4 3 3 3 3 3 3 3 3 2 2 3 4 4 4 5 5 5 5 5 5 4 4 8 12 13 14 13 13 13 12 12 12 10 6 4 4 5 5 6 6 7 7 7 7 7 6 6 6 6 5
7 7 7 6 6 6 6 6 6 6 6 6 6 6 5 5 4 3 3 3 3 3 3 3 3 3 3 3 3 3 3 4 5 5 5 5 5 5 5 4 5 7 11 13 13 13 13 12 12 12 11 7 4 3 3 4 4 5 6 6 6 6 7 6 6 6 5 4 3
6 5 5 5 5 5 5 5 5 5 5 6 5 5 5 4 4 3 3 3 3 3 3 3 3 3 3 3 3 3 3 4 4 5 5 5 5 4 4 4 4 6 8 12 13 13 12 12 12 12 10 5 3 3 3 4 4 4 5 6 6 6 6 6 6 6 5 5 4
4 4 4 4 4 4 4 4 4 5 5 5 4 4 4 4 3 3 3 3 3 3 3 3 3 3 3 4 4 4 4 4 4 5 5 5 4 4 4 4 4 5 7 10 12 13 12 12 12 12 9 5 3 3 4 4 4 4 5 5 6 6 6 6 5 5 6 6 8
3 3 4 4 4 3 3 4 4 4 4 4 4 4 4 3 3 3 3 3 2 2 3 3 3 3 4 4 4 4 4 5 5 5 4 4 4 5 5 4 4 5 7 10 12 13 12 12 12 12 10 6 4 3 3 4 4 5 5 5 5 5 6 6 5 5 6 6 10
4 4 4 4 4 4 3 4 4 3 3 3 4 4 4 4 3 3 3 3 2 2 2 3 3 4 4 5 5 4 4 5 4 4 4 5 6 7 8 6 5 6 7 10 12 12 12 12 12 12 10 6 4 3 3 3 4 4 4 4 4 5 5 5 5 5 5 5 8
4 5 5 5 5 4 4 4 3 3 3 3 4 4 4 4 3 3 3 3 3 3 3 3 4 5 5 5 5 5 5 5 5 5 5 7 8 8 8 6 6 6 6 8 10 12 12 12 11 11 10 7 4 3 3 3 4 4 4 4 4 4 4 4 4 4 5 5 5
Wind_Direction
204 204 197 187 180 169 67 42 45 54 64 71 70 71 72 75 76 72 67 64 66 65 63 58 54 50 46 42 43 42 39 35 32 31 31 29 23 18 15 14 11 8 5 2 1 5 15 19 19 15 9 11 25 31 31 22 28 40 52 56 48 41 36 32 22 16 16 25 36
208 212 213 211 203 163 96 70 64 64 66 70 70 71 72 75 75 73 68 64 65 66 64 61 56 52 50 47 46 45 43 39 36 34 33 30 25 22 21 23 22 21 20 17 17 20 28 37 46 48 45 37 43 45 41 31 37 48 56 58 56 52 49 46 39 35 34 36 39
200 207 209 209 179 115 91 81 77 75 74 73 73 73 74 76 75 73 70 66 64 63 62 60 56 54 52 50 47 45 43 40 37 36 34 32 27 25 26 29 28 28 28 29 29 28 31 38 48 51 47 37 38 41 40 30 33 43 51 52 50 49 47 46 37 32 29 32 36
73 82 93 102 98 95 93 92 88 84 80 77 74 73 72 72 73 72 70 68 64 62 60 61 59 56 53 50 46 43 41 38 37 36 35 32 29 29 30 32 33 32 30 31 31 30 31 37 45 46 44 40 39 39 37 31 33 38 43 42 40 38 37 37 32 28 26 26 31
74 78 82 88 90 91 91 90 88 86 82 79 76 74 71 71 71 71 69 66 63 61 60 60 59 55 50 48 44 41 38 35 35 34 32 30 28 27 30 35 38 36 33 32 33 33 34 40 46 46 41 39 41 41 40 38 40 41 41 39 36 33 29 25 21 18 18 16 17
80 81 82 85 86 87 86 84 82 80 78 76 74 72 71 69 69 69 68 68 65 61 57 55 53 49 46 44 42 40 37 33 31 29 28 26 25 25 27 32 37 38 36 34 38 40 42 47 52 50 44 42 44 44 44 46 49 49 48 45 40 37 34 29 23 19 17 16 14
80 79 78 78 79 80 80 78 77 76 75 73 71 71 71 72 71 71 70 69 63 56 51 49 47 45 44 42 41 39 36 32 29 26 23 22 21 21 23 26 31 34 35 33 37 42 48 54 58 55 48 44 43 41 42 47 52 55 55 53 48 46 44 40 34 29 24 21 18
78 76 74 72 73 74 74 73 74 74 73 71 70 71 72 72 72 71 69 65 59 54 51 49 47 46 46 46 43 40 36 33 28 24 22 21 19 19 20 22 25 27 27 26 29 35 42 52 57 57 52 48 46 42 42 47 53 57 59 58 55 53 52 50 46 42 37 31 27
78 75 72 70 70 71 72 72 73 73 73 72 70 69 69 70 69 68 66 64 60 57 54 52 50 49 49 48 46 43 39 34 30 25 23 22 22 21 19 19 21 21 20 18 20 24 30 41 48 51 50 51 51 48 48 50 57 60 62 62 60 58 59 60 58 56 54 50 46
79 78 75 73 73 74 75 75 74 74 74 73 69 68 67 67 66 66 66 67 64 61 57 53 51 51 50 50 47 44 41 37 34 30 28 26 26 24 22 20 19 18 16 13 13 15 20 30 40 44 45 46 49 50 52 54 63 68 70 70 68 64 61 58 58 58 60 62 65
78 79 79 79 78 78 78 77 75 73 72 72 68 66 64 64 65 66 69 69 67 64 60 57 57 56 55 52 49 47 44 42 39 37 34 32 30 28 26 23 20 18 15 11 8 8 11 19 32 40 42 39 40 42 46 50 62 71 79 85 86 81 73 62 53 49 48 47 53
76 78 79 80 80 79 78 77 74 71 70 69 67 64 62 62 64 67 69 68 68 66 64 61 60 59 57 55 52 50 48 48 46 44 40 36 34 31 30 27 23 19 13 6 1 360 2 8 23 35 40 35 29 30 36 42 51 65 83 103 108 106 99 89 76 67 59 50 47
76 77 78 78 78 77 76 74 71 69 67 67 66 64 62 60 62 65 66 66 67 66 62 58 57 56 53 50 47 44 42 42 43 42 40 36 33 31 29 28 25 19 11 359 351 348 351 358 16 32 40 36 29 29 32 33 25 16 15 115 117 116 115 114 113 110 106 99 92
74 73 74 75 74 74 73 71 70 67 66 66 66 64 62 60 59 60 62 62 62 60 56 53 51 49 46 42 38 36 35 36 36 36 35 31 28 24 22 20 18 15 9 358 354 355 360 7 18 28 34 36 32 30 29 25 14 359 346 343 22 78 105 121 132 135 136 135 133
72 70 70 70 70 71 71 71 70 68 66 66 64 63 61 59 56 56 56 56 56 53 51 48 48 45 43 39 35 33 32 34 34 33 32 29 25 20 16 12 10 9 10 10 10 11 13 16 20 23 26 28 26 25 24 24 24 20 15 9 14 20 25 29 84 136 143 143 139
71 68 67 67 68 69 70 70 70 68 66 64 61 59 58 56 54 53 52 52 51 49 48 46 46 43 40 36 33 31 30 31 31 31 29 26 21 16 11 6 4 6 11 16 17 17 16 17 18 19 20 23 22 20 19 20 22 23 23 23 23 19 13 5 358 354 3 74 116
69 67 66 66 67 68 69 69 68 66 63 60 57 55 54 53 52 51 50 50 50 49 47 45 44 42 39 35 30 29 28 28 27 25 23 19 15 9 3 360 359 3 7 14 15 14 12 10 10 11 13 16 15 14 12 12 13 14 16 18 20 19 16 9 1 356 354 357 7
69 67 66 66 67 67 67 66 65 63 60 57 55 53 52 52 51 51 50 49 49 49 48 46 44 41 38 34 29 26 25 24 21 18 14 9 4 360 356 353 353 356 2 7 8 5 2 358 358 360 2 5 5 4 1 360 356 354 352 351 353 356 359 1 359 355 351 347 343
70 68 66 65 65 65 64 64 63 61 59 56 54 53 52 50 52 52 51 49 47 47 46 45 43 40 36 32 28 24 21 18 14 9 5 358 354 351 349 346 347 349 353 357 354 349 343 338 339 338 340 340 343 341 337 332 327 321 317 314 314 315 317 320 322 322 319 315 311
68 66 65 64 63 63 62 61 61 61 59 57 55 53 52 49 50 51 51 49 46 44 43 42 40 36 32 28 25 20 15 8 4 0 355 349 346 344 343 342 344 348 352 355 352 345 338 330 324 317 311 303 305 303 299 295 290 284 278 275 268 262 259 256 256 256 257 258 263
64 64 63 62 62 62 61 60 60 60 59 57 54 53 51 48 48 48 48 47 45 44 42 38 35 31 27 22 19 13 5 355 351 346 343 340 339 338 338 341 348 356 1 3 356 350 345 340 338 336 332 326 320 305 289 278 274 270 266 262 255 246 239 234 233 234 236 238 241
61 61 61 61 61 61 60 58 58 58 57 56 54 52 50 48 46 45 43 42 42 41 40 36 31 26 19 10 5 357 346 337 336 334 331 331 329 327 328 334 351 2 6 2 353 348 346 346 347 347 347 343 335 323 308 291 276 266 262 261 258 252 244 237 233 232 232 234 237
59 59 59 59 59 59 59 57 56 55 55 53 52 50 49 47 45 42 40 37 37 36 34 29 23 16 3 346 333 326 320 325 327 323 318 312 305 301 302 311 351 9 5 351 340 338 340 344 346 348 347 344 337 330 322 313 301 286 273 267 266 264 259 253 245 241 238 237 238
57 58 58 58 58 58 58 57 55 53 52 49 47 46 45 44 42 40 38 36 33 29 22 8 350 328 309 306 305 307 316 329 326 319 311 301 288 280 275 274 345 19 359 334 334 340 346 349 346 346 345 342 336 332 328 325 322 316 308 299 294 288 282 277 269 261 254 248 243
57 58 59 59 58 58 58 56 54 52 49 45 42 40 39 37 37 36 35 32 25 15 354 318 293 281 280 294 301 307 316 333 330 323 318 312 301 291 279 259 169 57 345 332 342 349 355 358 358 356 351 343 335 330 327 325 325 323 320 316 310 304 296 290 284 276 267 258 249
58 58 58 59 59 58 57 55 53 50 47 43 38 35 32 29 29 28 26 19 1 332 300 284 280 283 292 300 309 317 328 337 335 331 327 324 319 317 315 304 197 163 330 335 343 348 352 355 356 357 356 347 335 328 324 320 319 317 315 312 307 300 292 286 281 278 273 266 258
58 58 57 57 57 56 54 52 49 46 43 39 35 32 29 26 24 20 12 352 322 299 288 287 295 302 313 317 328 337 345 347 341 337 335 333 331 331 330 323 310 274 305 327 337 342 346 350 350 351 351 349 337 326 318 312 310 309 307 305 302 296 290 283 278 276 278 283 284
58 56 55 54 53 52 50 48 46 43 39 36 33 30 27 24 20 10 353 327 313 309 312 317 320 323 332 344 346 349 353 354 347 343 340 338 335 334 331 323 315 303 305 316 327 335 340 343 344 343 343 344 338 324 313 306 305 305 305 304 303 302 300 296 293 292 294 298 303
56 55 53 52 51 49 47 46 44 41 38 33 31 28 26 23 14 358 338 327 329 332 337 335 340 346 354 356 351 352 355 357 349 345 343 339 332 327 323 318 310 305 308 314 319 326 332 335 338 338 338 340 338 326 311 305 305 305 305 305 306 306 306 305 305 304 302 299 300
54 53 52 51 49 47 45 44 44 42 39 33 30 27 24 20 9 355 346 342 341 342 344 352 359 359 356 351 351 352 354 350 345 342 339 333 325 318 312 308 302 303 308 315 318 323 326 330 333 334 334 336 335 329 313 305 303 302 301 300 299 299 299 300 300 300 298 297 297
48 49 49 48 46 43 40 38 39 39 38 36 30 24 17 12 8 2 357 351 345 346 352 4 6 1 352 346 352 352 349 343 341 336 329 321 316 310 305 302 299 302 310 318 321 324 326 329 331 332 332 333 334 331 319 310 305 300 296 294 293 292 293 293 294 293 293 294 295
42 43 43 43 40 37 33 30 30 30 29 28 23 17 8 4 4 5 2 358 355 354 357 2 2 356 350 349 352 351 347 342 337 330 324 318 313 309 307 306 304 308 314 323 325 327 328 329 331 331 331 332 334 333 327 315 307 301 295 292 290 289 289 289 289 289 289 289 289
35 36 37 36 33 29 25 22 22 21 19 15 12 8 5 0 0 3 5 3 1 360 358 357 355 351 348 347 348 346 342 337 330 325 321 320 317 315 314 313 311 315 321 326 328 329 330 330 331 330 330 332 335 336 331 319 310 303 298 293 291 289 287 286 286 286 285 283 281
29 29 30 29 24 20 15 13 15 15 13 9 6 4 2 0 0 0 2 1 0 358 354 351 347 343 341 342 342 339 333 329 325 322 321 320 322 322 321 319 315 322 326 328 328 329 329 329 329 329 330 334 337 337 329 316 308 301 296 292 290 288 286 285 283 281 279 277 274
24 23 21 18 14 11 8 7 10 12 11 6 1 359 358 358 357 355 354 354 355 352 346 341 339 336 336 336 336 332 327 324 321 320 320 321 324 325 322 318 316 323 326 326 326 326 327 327 327 329 332 337 340 335 321 309 302 296 293 290 289 288 287 286 284 281 278 274 271
20 16 12 6 3 2 2 3 7 9 8 3 357 354 351 350 346 343 343 347 351 348 341 334 334 336 336 332 329 325 321 317 316 316 316 318 321 320 316 312 311 318 322 323 323 324 325 326 328 331 335 341 341 328 313 304 299 295 294 295 296 296 297 297 297 296 293 290 287
15 10 4 355 353 354 357 1 5 6 3 357 351 346 343 340 334 331 334 346 348 343 336 330 331 330 326 321 316 311 307 307 309 309 310 311 310 307 304 303 300 307 313 319 321 323 326 329 332 335 339 345 340 327 317 310 307 306 307 308 309 311 312 312 313 313 315 316 318
5 1 355 347 343 347 354 1 3 1 356 349 342 336 333 331 327 326 330 342 341 334 327 324 321 315 309 306 305 303 301 301 302 303 303 302 299 298 298 298 297 299 307 318 323 327 331 334 336 339 343 349 344 335 327 323 321 320 321 321 320 320 321 321 320 320 321 321 323
353 351 348 342 339 345 354 1 358 354 349 343 336 330 328 326 321 321 323 330 326 320 315 311 305 300 299 305 309 309 306 303 301 302 303 303 305 311 316 313 309 306 313 323 329 332 335 338 339 342 345 351 350 344 337 332 327 325 324 323 321 320 319 318 318 318 319 320 322
349 349 349 345 343 348 356 359 352 346 341 338 333 328 324 321 317 317 319 322 317 311 306 302 299 299 304 314 317 317 314 312 312 316 321 325 326 331 332 327 320 316 319 327 333 336 338 340 341 344 348 355 357 352 343 334 327 322 319 316 314 313 312 311 312 313 315 316 318
354 353 352 348 346 348 353 355 347 342 337 336 330 325 320 320 320 322 325 326 321 318 314 311 311 313 318 325 326 327 327 328 332 338 342 343 339 338 336 328 323 318 320 329 336 339 340 341 343 346 351 357 0 356 346 333 324 318 314 311 309 308 308 308 308 309 310 312 311